Date String (YYYY-MM-DD hh:mm:ss) UTC,Instrument flags,absolute air pressure of the measurement (hPa),sample flow rate (lpm),inlet stack bypass flow (lpm),air temperature of the measurement (°C),ambient temperature measured by the external sensor (°C),aerosol sample conditioner tube jacket temperature (°C),OPC LED temperature (°C),internal box temperature (°C),relative humidity of the measurement (%),span deviation,mass concentration of particles derived from Lorenz-Mie calculation of OPC scattering (μg/m³),mass concentration of particles derived from Lorenz-Mie calculation of OPC scattering (μg/m³),mass concentration of particles derived from Lorenz-Mie calculation of OPC scattering (μg/m³)
DateTimeUTC,F1_M11,P_M11,Q1_M11,Q2_M11,T1_M11,T2_M11,T3_M11,T4_M11,T5_M11,U1_M11,ZSPAN_M11,X0_M11,X2_M11,X1_M11
2024-05-20 23:00:00,SystemResetWarning,0821.6,5.00,000.00,030.3,027.6,000.0,039.4,031.3,020.1,0000.0,0020.09,0005.65,0004.23
2024-05-20 23:01:00,SystemResetWarning,0821.7,5.00,000.00,030.3,028.0,000.0,039.3,031.5,020.4,0000.0,0019.04,0005.70,0004.24
2024-05-20 23:02:00,SystemResetWarning,0822.1,5.00,000.00,030.3,028.3,000.0,039.2,031.7,020.2,0000.0,0018.83,0005.67,0004.23
2024-05-20 23:03:00,SystemResetWarning,0822.0,5.00,000.00,030.3,028.6,000.0,039.1,031.8,020.1,0000.0,0019.23,0005.72,0004.24
2024-05-20 23:04:00,SystemResetWarning,0822.0,5.00,000.00,030.3,028.9,000.0,039.0,031.9,020.1,0000.0,0020.51,0005.81,0004.24
2024-05-20 23:05:00,SystemResetWarning,0822.0,4.99,000.00,030.4,029.1,000.0,039.0,032.0,020.1,0000.0,0021.43,0005.85,0004.24
2024-05-20 23:06:00,SystemResetWarning,0821.7,4.99,000.00,030.4,029.2,000.0,039.0,032.0,020.0,0000.0,0022.57,0005.86,0004.23
2024-05-20 23:07:00,SystemResetWarning,0821.4,5.00,000.00,030.4,029.4,000.0,039.0,032.1,019.9,0000.0,0021.80,0005.78,0004.23
2024-05-20 23:08:00,SystemResetWarning,0821.3,5.00,000.00,030.4,029.5,000.0,039.0,032.2,019.9,0000.0,0021.77,0005.79,0004.24
2024-05-20 23:09:00,SystemResetWarning,0821.3,5.00,000.00,030.5,029.6,000.0,038.9,032.2,019.8,0000.0,0021.29,0005.81,0004.25
2024-05-20 23:10:00,SystemResetWarning,0821.3,5.00,000.00,030.5,029.7,000.0,038.9,032.2,019.6,0000.0,0021.01,0005.85,0004.24
2024-05-20 23:11:00,SystemResetWarning,0821.3,5.00,000.00,030.6,029.8,000.0,038.9,032.3,019.8,0000.0,0021.13,0005.89,0004.24
2024-05-20 23:12:00,SystemResetWarning,0821.3,5.01,000.00,030.6,029.9,000.0,038.9,032.3,019.7,0000.0,0022.22,0005.90,0004.22
2024-05-20 23:13:00,SystemResetWarning,0821.3,4.99,000.00,030.6,029.9,000.0,039.0,032.3,019.3,0000.0,0022.77,0005.90,0004.21
2024-05-20 23:14:00,SystemResetWarning,0821.3,4.99,000.00,030.7,030.0,000.0,039.0,032.4,019.5,0000.0,0022.42,0005.84,0004.17
2024-05-20 23:15:00,SystemResetWarning,0821.3,5.00,000.00,030.7,030.1,000.0,039.0,032.4,019.3,0000.0,0021.71,0005.70,0004.14
2024-05-20 23:16:00,SystemResetWarning,0821.3,5.00,000.00,030.7,030.1,000.0,039.0,032.5,019.4,0000.0,0020.08,0005.68,0004.12
2024-05-20 23:17:00,SystemResetWarning,0821.3,5.01,000.00,030.8,030.1,000.0,039.0,032.5,019.4,0000.0,0019.22,0005.71,0004.11
2024-05-20 23:18:00,SystemResetWarning,0821.3,5.00,000.00,030.8,030.2,000.0,039.1,032.5,019.4,0000.0,0018.83,0005.73,0004.10
2024-05-20 23:19:00,SystemResetWarning,0821.3,5.01,000.00,030.8,030.2,000.0,039.1,032.5,019.4,0000.0,0019.02,0005.71,0004.08
2024-05-20 23:20:00,SystemResetWarning,0821.3,5.00,000.00,030.9,030.3,000.0,039.1,032.6,019.1,0000.0,0020.17,0005.73,0004.07
2024-05-20 23:21:00,SystemResetWarning,0821.3,5.00,000.00,030.9,030.3,000.0,039.1,032.6,019.0,0000.0,0019.68,0005.65,0004.04
2024-05-20 23:22:00,SystemResetWarning,0821.3,5.00,000.00,030.9,030.3,000.0,039.1,032.6,019.5,0000.0,0018.76,0005.56,0004.02
2024-05-20 23:23:00,SystemResetWarning,0821.2,5.00,000.00,030.9,030.4,000.0,039.2,032.7,019.8,0000.0,0019.63,0005.49,0004.01
2024-05-20 23:24:00,SystemResetWarning,0821.2,4.99,000.00,031.0,030.4,000.0,039.2,032.7,019.4,0000.0,0022.06,0005.48,0004.01
2024-05-20 23:25:00,SystemResetWarning,0821.2,4.99,000.00,031.0,030.4,000.0,039.2,032.7,019.5,0000.0,0022.68,0005.52,0004.03
2024-05-20 23:26:00,SystemResetWarning,0821.1,5.00,000.00,031.0,030.4,000.0,039.2,032.7,019.5,0000.0,0023.19,0005.62,0004.06
2024-05-20 23:27:00,SystemResetWarning,0821.1,5.01,000.00,031.0,030.5,000.0,039.3,032.8,019.5,0000.0,0024.56,0005.63,0004.06
2024-05-20 23:28:00,SystemResetWarning,0821.3,5.00,000.00,031.1,030.5,000.0,039.3,032.8,019.7,0000.0,0025.02,0005.58,0004.07
2024-05-20 23:29:00,SystemResetWarning,0821.1,5.01,000.00,031.1,030.5,000.0,039.3,032.8,019.9,0000.0,0026.50,0005.58,0004.06
2024-05-20 23:30:00,SystemResetWarning,0821.1,5.00,000.00,031.0,029.8,000.0,039.4,032.4,020.1,0000.0,0026.25,0005.62,0004.06
2024-05-20 23:31:00,SystemResetWarning,0821.1,5.00,000.00,030.6,027.3,000.0,039.4,031.0,020.4,0000.0,0024.75,0005.62,0004.06
2024-05-20 23:32:00,SystemResetWarning,0821.0,5.00,000.00,030.1,026.0,000.0,039.3,030.3,020.9,0000.0,0024.03,0005.61,0004.06
2024-05-20 23:33:00,SystemResetWarning,0821.1,5.01,000.00,029.8,026.3,000.0,039.2,030.4,021.1,0000.0,0024.80,0005.71,0004.08
2024-05-20 23:34:00,SystemResetWarning,0821.1,4.99,000.00,029.8,026.8,000.0,038.9,030.7,021.2,0000.0,0024.71,0005.76,0004.10
2024-05-20 23:35:00,SystemResetWarning,0821.2,4.99,000.00,029.8,027.3,000.0,038.8,031.0,021.2,0000.0,0021.83,0005.80,0004.10
2024-05-20 23:36:00,SystemResetWarning,0821.3,5.00,000.00,029.8,027.7,000.0,038.7,031.2,021.2,0000.0,0020.73,0005.82,0004.08
2024-05-20 23:37:00,SystemResetWarning,0821.3,5.01,000.00,029.8,028.0,000.0,038.7,031.3,021.1,0000.0,0019.80,0005.77,0004.06
2024-05-20 23:38:00,SystemResetWarning,0821.3,4.99,000.00,029.9,028.3,000.0,038.6,031.4,020.9,0000.0,0018.73,0005.74,0004.06
2024-05-20 23:39:00,SystemResetWarning,0821.3,5.00,000.00,029.9,028.6,000.0,038.6,031.5,021.0,0000.0,0018.58,0005.69,0004.06
2024-05-20 23:40:00,SystemResetWarning,0821.3,5.00,000.00,029.9,028.8,000.0,038.5,031.6,020.9,0000.0,0017.89,0005.68,0004.06
2024-05-20 23:41:00,SystemResetWarning,0821.3,5.01,000.00,030.0,029.0,000.0,038.5,031.7,020.7,0000.0,0018.40,0005.66,0004.06
2024-05-20 23:42:00,SystemResetWarning,0821.3,5.01,000.00,030.0,029.1,000.0,038.5,031.7,020.8,0000.0,0019.96,0005.66,0004.06
2024-05-20 23:43:00,SystemResetWarning,0821.3,5.00,000.00,030.1,029.3,000.0,038.5,031.8,020.7,0000.0,0020.16,0005.68,0004.07
2024-05-20 23:44:00,SystemResetWarning,0821.3,5.00,000.00,030.1,029.4,000.0,038.5,031.9,020.7,0000.0,0019.90,0005.71,0004.06
2024-05-20 23:45:00,SystemResetWarning,0821.2,4.99,000.00,030.2,029.5,000.0,038.5,031.9,020.7,0000.0,0018.91,0005.70,0004.05
2024-05-20 23:46:00,SystemResetWarning,0821.2,4.99,000.00,030.2,029.6,000.0,038.5,032.0,020.8,0000.0,0018.57,0005.74,0004.05
2024-05-20 23:47:00,SystemResetWarning,0821.1,5.00,000.00,030.3,029.6,000.0,038.6,032.0,020.7,0000.0,0017.97,0005.75,0004.06
2024-05-20 23:48:00,SystemResetWarning,0821.1,5.00,000.00,030.3,029.7,000.0,038.6,032.1,020.5,0000.0,0019.23,0005.76,0004.06
2024-05-20 23:49:00,SystemResetWarning,0821.0,5.00,000.00,030.4,029.8,000.0,038.6,032.1,020.4,0000.0,0019.05,0005.81,0004.05
2024-05-20 23:50:00,SystemResetWarning,0821.1,5.01,000.00,030.4,029.8,000.0,038.6,032.1,020.4,0000.0,0018.48,0005.85,0004.05
2024-05-20 23:51:00,SystemResetWarning,0821.1,5.01,000.00,030.4,029.9,000.0,038.6,032.2,020.4,0000.0,0018.54,0005.89,0004.05
2024-05-20 23:52:00,SystemResetWarning,0821.1,4.99,000.00,030.5,029.9,000.0,038.7,032.2,020.5,0000.0,0017.83,0005.88,0004.05
2024-05-20 23:53:00,SystemResetWarning,0821.1,4.99,000.00,030.5,030.0,000.0,038.7,032.3,020.4,0000.0,0017.22,0005.88,0004.04
2024-05-20 23:54:00,SystemResetWarning,0821.1,4.99,000.00,030.5,030.0,000.0,038.7,032.3,020.5,0000.0,0018.48,0005.87,0004.03
2024-05-20 23:55:00,SystemResetWarning,0821.2,5.01,000.00,030.6,030.1,000.0,038.8,032.3,020.4,0000.0,0019.33,0005.81,0004.02
2024-05-20 23:56:00,SystemResetWarning,0821.0,5.01,000.00,030.6,030.1,000.0,038.8,032.4,020.5,0000.0,0019.52,0005.77,0004.01
2024-05-20 23:57:00,SystemResetWarning,0821.2,5.01,000.00,030.6,030.1,000.0,038.8,032.4,020.2,0000.0,0019.84,0005.72,0004.00
2024-05-20 23:58:00,SystemResetWarning,0821.1,5.00,000.00,030.7,030.2,000.0,038.8,032.4,020.4,0000.0,0021.30,0005.71,0003.99
2024-05-20 23:59:00,SystemResetWarning,0821.0,5.00,000.00,030.7,030.2,000.0,038.9,032.4,020.4,0000.0,0020.96,0005.72,0003.99
